GFSSW_500_rhum_132.txt.gz
RH
12 13 12 11 8 7 7 8 8 8 8 7 5 4 4 3 4 4 4 4 3 3 3 2 2 2 2 11 63 66 74 97 94 90 97 94 38 23 16 16 33 28 22 24 44
2 2 3 3 4 5 6 7 8 8 8 9 8 7 6 5 4 4 4 4 4 4 4 3 3 3 3 13 87 90 79 90 96 80 87 94 91 77 24 14 28 26 19 20 30
2 2 2 2 2 2 2 2 2 2 4 8 10 10 10 8 7 5 5 4 4 4 4 4 4 4 5 19 98 80 95 96 86 65 82 97 95 40 22 35 28 27 18 17 26
3 3 3 3 3 3 3 2 2 2 2 2 2 4 9 11 10 7 6 5 5 4 4 4 4 4 13 12 61 97 69 67 42 34 85 99 73 65 63 78 34 19 20 15 20
4 4 4 4 3 3 3 3 3 2 2 2 2 2 2 4 9 10 8 7 6 5 5 4 4 4 4 12 59 99 49 50 15 20 78 92 88 76 37 68 51 26 18 18 18
5 4 4 4 4 4 4 4 3 3 3 3 3 2 2 2 3 7 11 10 8 7 6 5 4 4 4 6 16 49 53 34 40 60 37 69 70 62 83 49 15 14 24 22 21
6 5 5 5 5 4 4 4 4 3 3 3 5 5 4 3 2 3 5 11 11 9 8 8 7 6 6 6 6 12 89 54 61 73 48 46 68 98 95 75 28 14 17 17 22
5 5 6 6 6 5 5 5 4 4 3 3 4 7 6 5 3 3 3 4 9 11 10 9 9 8 8 8 6 8 17 79 70 97 75 35 34 77 74 77 30 18 12 16 15
4 4 4 4 5 5 6 6 5 5 4 4 5 6 6 6 6 4 4 4 5 9 11 10 10 9 9 8 13 6 15 19 43 96 84 30 32 52 76 79 86 90 24 12 19
4 4 4 4 4 4 5 5 6 6 5 5 6 5 7 6 7 7 5 6 7 9 10 11 10 10 9 10 14 11 8 22 63 97 98 76 22 47 57 70 76 92 58 20 14
4 4 4 4 4 4 4 4 6 6 6 6 5 5 6 4 5 9 8 8 9 10 11 10 10 10 12 14 44 33 34 40 51 73 97 39 9 6 14 24 48 81 81 64 13
4 4 4 4 4 4 4 4 4 6 7 7 6 6 10 8 6 8 8 10 11 12 10 10 10 10 13 16 42 32 29 63 50 49 42 34 9 5 10 12 8 30 65 90 36
8 6 6 5 4 4 4 4 4 5 7 7 8 8 12 12 9 10 11 11 13 12 11 11 10 10 10 21 27 34 58 45 44 26 13 17 8 8 19 22 45 10 32 94 85
10 8 5 5 5 5 5 5 5 5 6 8 11 15 12 12 12 12 14 13 13 11 10 10 10 10 10 17 25 28 69 52 45 13 13 13 13 6 15 62 64 42 9 52 82
15 15 14 8 6 5 5 5 5 6 7 8 14 13 14 11 12 13 14 14 12 11 11 11 8 9 9 14 14 46 60 44 39 20 7 8 8 7 8 45 47 60 61 19 58
22 24 26 18 14 9 5 5 6 6 7 8 16 13 15 13 10 12 12 13 13 12 11 10 10 9 10 20 15 46 36 37 43 25 23 72 54 37 44 40 48 44 48 50 66
17 16 14 22 30 14 9 6 6 6 10 12 13 17 16 18 12 8 9 8 10 10 11 15 21 20 13 17 18 29 29 20 29 18 96 89 53 43 50 67 62 62 52 37 43
16 14 14 15 17 38 12 8 6 8 13 14 14 19 27 22 18 14 10 6 10 10 17 18 18 18 30 20 12 9 12 11 33 60 80 74 49 48 48 51 53 59 61 32 38
20 16 13 13 15 21 44 17 8 11 46 39 16 25 58 50 26 19 44 16 16 23 30 24 31 43 45 41 15 8 9 8 23 48 53 70 65 54 50 52 54 60 62 57 47
14 10 9 10 11 22 26 45 11 13 68 82 43 46 68 86 44 54 72 52 29 24 28 53 55 53 52 42 26 12 18 18 14 52 68 64 68 65 51 46 59 58 58 62 79
12 10 12 14 15 16 22 34 35 13 80 100 86 56 60 75 70 82 88 81 49 37 58 56 72 59 40 53 44 34 12 12 42 58 38 60 74 68 80 94 49 45 49 55 81
14 12 14 19 20 21 24 37 66 15 84 99 99 87 74 76 80 89 96 86 66 59 48 73 83 86 45 39 52 42 74 61 28 38 34 36 53 79 64 59 62 73 77 67 69
18 13 14 18 23 18 25 28 55 17 74 100 98 88 72 63 87 97 87 83 66 71 46 62 33 51 53 49 46 49 58 70 73 68 70 52 37 43 66 65 60 60 67 52 76
17 15 20 19 15 20 40 29 41 37 32 100 95 86 72 65 83 93 92 82 83 71 41 35 45 30 41 42 38 45 51 71 80 75 75 57 58 56 54 61 60 58 54 68 65
18 18 20 19 19 28 56 59 49 85 18 93 90 84 76 72 77 85 82 80 75 61 43 30 31 34 32 32 41 45 42 65 76 74 57 64 52 48 44 73 92 72 68 77 80
19 22 18 28 21 28 63 77 80 93 25 69 78 59 67 67 74 75 76 68 62 50 44 44 31 27 32 37 33 27 31 46 58 63 70 62 65 45 43 50 52 61 66 48 62
22 18 30 31 29 33 57 74 85 97 50 76 91 58 68 67 75 73 74 58 50 46 45 40 33 35 39 40 34 26 28 34 44 60 71 79 79 66 34 14 8 15 36 28 35

GFSSW_500_rhum_135.txt.gz
RH
10 11 10 8 7 6 6 6 6 7 8 8 5 5 4 4 4 4 4 4 3 3 3 3 3 3 4 16 59 91 95 90 76 77 95 90 74 65 26 18 24 18 22 43 47
2 2 2 2 3 3 4 4 6 7 8 9 9 8 6 5 4 4 4 4 4 4 4 3 3 4 8 31 71 90 78 59 78 56 78 97 89 54 27 18 27 18 20 33 43
2 2 2 2 2 2 2 2 2 2 2 4 9 10 10 9 8 6 5 4 5 4 4 4 4 4 4 18 96 75 88 76 45 41 82 74 84 46 28 43 38 22 19 28 40
3 3 3 3 3 3 3 3 2 2 2 2 2 4 8 10 10 8 7 6 5 5 4 4 4 4 4 5 50 83 56 46 18 35 76 78 75 64 53 91 19 19 17 22 34
4 4 4 4 4 3 3 3 3 2 2 2 3 3 2 3 7 11 10 7 6 5 5 4 4 4 4 4 25 64 38 23 28 36 60 83 74 78 75 51 24 22 20 18 28
5 4 4 4 4 4 4 4 3 3 3 3 3 4 4 2 3 6 12 10 7 7 6 6 5 5 4 5 16 40 45 47 43 43 36 69 73 85 97 44 16 18 27 12 22
5 5 5 5 5 5 5 5 4 4 3 3 3 4 6 6 3 3 5 12 12 10 8 8 7 6 6 7 12 22 68 56 68 64 38 36 57 62 100 33 22 15 17 18 14
4 4 3 3 4 4 5 5 5 5 5 4 4 4 5 6 6 5 3 5 11 13 10 9 8 8 8 8 18 16 33 77 69 77 67 27 25 66 92 71 31 19 17 20 19
4 4 4 3 3 3 3 4 4 5 5 5 4 4 5 6 6 7 6 5 6 12 13 11 10 10 9 9 9 47 47 32 56 95 86 58 39 49 78 75 71 82 24 18 16
4 4 4 4 3 3 3 3 3 4 5 6 6 5 6 5 5 6 8 7 7 7 11 13 12 11 11 12 13 12 11 10 19 89 95 73 28 37 40 65 98 86 43 21 23
4 4 4 4 4 3 3 3 4 4 5 6 7 6 6 6 7 5 7 9 9 11 12 12 12 12 13 16 11 12 10 10 15 68 68 84 30 12 9 19 44 84 84 37 23
7 6 6 6 6 5 5 5 4 4 4 6 7 7 8 8 7 8 6 9 11 11 12 12 13 16 14 15 14 15 16 14 11 23 42 53 16 11 8 11 10 20 58 90 21
10 10 9 9 8 7 7 6 6 4 5 5 6 8 10 9 10 10 9 9 12 12 13 12 12 13 16 14 16 18 17 16 19 16 29 23 17 6 18 15 20 22 15 80 66
11 11 12 12 11 9 7 6 5 5 5 6 6 9 11 12 11 11 10 11 13 13 13 13 12 13 18 14 16 18 14 16 12 24 26 27 18 6 14 42 49 48 20 18 87
24 23 23 21 19 16 14 11 7 5 6 7 8 11 12 14 12 10 11 14 14 13 12 12 11 12 12 17 19 48 21 21 22 27 10 8 8 10 15 37 52 48 47 32 76
21 21 21 21 22 24 26 18 12 8 6 7 9 12 13 18 15 10 12 14 14 13 12 12 12 11 13 21 21 38 38 32 34 20 19 29 35 32 34 46 61 61 50 43 54
17 16 15 15 15 15 16 25 21 11 9 8 9 10 14 19 18 13 9 11 12 14 13 13 11 14 20 25 26 36 45 51 29 18 33 53 29 48 75 86 68 83 68 48 38
17 18 19 20 19 16 15 16 28 21 9 8 10 11 16 20 21 22 11 8 8 11 12 15 19 32 26 22 21 25 27 28 25 36 53 57 39 63 71 75 76 85 76 59 43
18 19 18 18 18 14 14 15 23 31 12 9 9 11 19 20 33 41 16 10 10 12 19 22 36 41 36 25 32 19 22 23 18 33 30 47 32 49 50 57 58 60 65 61 67
19 19 19 17 14 11 11 12 23 38 15 16 18 16 30 20 22 41 47 35 24 17 22 45 63 66 57 48 34 28 21 22 11 14 18 34 31 50 54 54 47 46 54 62 60
22 21 20 20 15 13 14 17 29 45 22 66 81 37 47 38 37 50 63 69 64 43 42 45 42 79 75 68 47 31 18 19 24 15 18 24 44 42 46 55 77 99 72 52 59
20 20 20 20 17 15 15 18 24 39 41 54 99 81 65 68 44 38 33 59 72 67 70 61 68 92 81 65 54 46 25 20 22 36 30 40 39 40 36 36 43 65 77 72 57
21 16 18 18 16 15 16 21 25 35 63 24 100 92 63 78 63 46 39 60 86 75 63 69 84 84 93 65 72 52 57 43 30 24 26 38 37 31 39 46 38 34 48 66 56
21 15 14 18 17 15 17 17 24 34 59 36 89 97 88 82 74 69 48 63 83 92 81 76 63 70 65 82 69 63 51 44 45 38 36 38 47 56 55 56 50 38 42 44 64
19 17 17 16 16 17 20 19 23 43 39 61 38 96 99 88 79 81 59 79 76 91 84 67 55 56 72 100 90 72 86 71 54 46 40 45 48 52 56 53 46 44 53 70 84
22 20 20 20 17 16 20 22 33 42 46 80 23 98 98 84 82 78 79 80 84 80 77 76 63 48 38 50 40 35 36 44 63 60 50 52 59 62 57 46 37 32 43 30 39
26 22 20 21 19 18 24 24 42 61 64 90 32 65 97 95 86 82 66 69 80 82 72 56 42 42 39 31 29 32 37 37 33 39 58 54 61 62 50 46 42 26 19 16 9

GFSSW_500_rhum_138.txt.gz
RH
10 10 8 7 6 6 6 6 6 7 8 8 6 5 4 4 3 4 4 4 4 4 3 3 3 3 5 17 46 82 70 72 62 85 93 79 94 81 19 17 18 19 33 43 72
2 2 2 3 2 2 2 3 5 7 8 9 9 9 7 6 5 5 4 4 4 4 4 4 4 4 4 22 54 85 72 56 36 60 82 96 69 38 29 17 15 18 28 39 50
3 2 2 2 3 3 2 3 3 2 2 3 5 9 10 10 8 7 6 5 4 4 4 4 4 4 4 8 64 76 74 32 17 66 87 75 75 50 58 47 17 21 20 36 47
3 3 3 3 3 3 3 3 3 3 3 3 3 2 3 7 10 10 7 6 6 4 4 4 4 4 4 7 30 68 38 25 17 52 70 63 48 56 52 64 28 20 19 26 41
4 4 4 4 4 4 3 3 3 3 3 3 3 3 3 2 3 6 11 9 8 6 5 4 4 4 4 5 11 81 32 16 53 49 88 77 73 77 79 35 33 24 15 23 34
5 4 4 4 4 4 4 4 4 4 4 3 3 3 4 5 4 3 4 10 11 7 7 7 6 5 5 5 9 40 34 30 50 37 66 68 75 97 100 57 17 24 23 20 30
5 5 5 5 5 4 4 4 4 4 4 4 4 4 4 4 6 6 3 4 11 11 9 8 7 7 6 7 10 25 51 45 55 65 36 53 50 61 88 24 19 20 21 21 22
4 4 3 3 3 3 3 4 4 5 5 5 5 5 4 4 5 6 7 4 4 8 11 11 9 8 8 8 14 26 26 35 53 73 53 24 36 83 81 33 44 22 19 22 17
4 4 4 4 4 3 3 3 4 4 5 6 6 6 6 5 5 5 6 7 5 4 6 12 11 10 9 8 9 38 60 34 44 69 72 48 29 62 85 65 62 51 22 22 23
4 4 4 4 4 4 4 3 3 4 4 4 5 6 6 6 6 6 5 6 8 6 5 10 12 12 11 10 10 14 32 45 42 35 62 82 23 21 54 80 90 78 38 19 24
4 4 4 4 4 4 4 4 4 4 4 4 4 5 6 7 7 7 7 6 7 8 8 8 9 13 13 12 11 12 10 12 9 12 43 58 50 14 6 24 51 69 77 31 28
9 9 9 10 9 9 10 9 8 6 6 5 5 5 6 6 7 7 7 8 7 9 10 10 11 18 14 12 12 12 12 13 15 25 42 50 32 9 8 11 22 20 64 84 24
9 10 10 10 11 10 10 9 8 7 6 6 5 5 5 6 9 9 8 8 9 8 11 12 15 19 16 14 14 13 12 15 18 17 30 36 23 11 9 10 17 17 15 80 53
20 18 17 15 14 13 12 13 12 11 8 6 6 6 7 8 10 10 10 10 11 11 12 13 13 14 16 14 13 13 20 15 16 17 39 38 50 23 9 31 61 50 22 22 90
21 24 26 26 24 23 23 23 23 20 14 10 8 8 8 8 10 10 10 10 11 12 13 12 14 14 15 14 15 26 21 24 23 17 22 21 26 14 26 38 48 62 52 28 98
17 18 19 18 18 16 16 19 21 25 22 16 11 8 8 8 10 13 15 11 11 12 14 13 14 14 16 19 15 28 29 24 29 36 24 35 32 17 63 45 38 49 48 49 63
16 17 17 17 17 17 18 16 16 17 21 19 15 10 9 9 9 15 17 13 10 14 15 13 12 14 16 19 22 21 26 34 33 22 38 36 32 41 50 50 54 70 58 42 38
19 18 18 19 19 20 19 19 18 18 23 22 18 13 11 13 13 19 20 15 10 12 14 13 14 13 19 22 30 37 29 42 47 24 41 41 35 64 87 88 68 68 58 57 45
22 21 20 19 18 18 17 17 17 16 20 28 24 12 15 27 25 21 23 18 12 8 13 14 15 31 48 43 52 50 34 46 46 22 36 34 31 76 81 92 84 62 58 60 54
26 24 23 22 20 19 18 17 14 12 15 28 34 21 21 26 30 30 27 21 12 9 15 21 26 44 77 58 43 30 27 32 27 26 32 28 34 50 64 64 75 68 56 52 54
31 28 26 24 21 20 20 18 14 13 16 28 44 21 24 37 40 40 42 51 34 30 26 35 60 59 82 74 58 42 30 22 23 19 17 18 22 40 60 59 63 56 56 62 52
36 32 29 26 20 16 16 18 16 14 16 28 53 26 27 64 40 39 47 59 71 70 55 49 65 74 79 90 80 54 40 25 20 24 23 15 19 28 39 37 34 33 40 59 61
34 34 33 28 20 15 15 17 16 16 22 27 50 37 43 85 71 55 57 63 88 96 95 92 75 84 82 86 89 80 66 36 19 18 19 22 23 26 25 23 22 23 26 30 31
25 25 32 29 20 16 17 18 18 16 24 33 53 43 41 95 88 76 66 63 70 86 98 97 95 89 79 90 76 82 67 52 49 50 45 36 36 35 33 33 34 34 34 47 63
32 30 31 29 22 19 18 19 19 19 20 26 36 68 44 100 99 87 81 70 71 68 86 91 83 75 87 85 77 71 66 55 48 39 32 35 30 32 33 28 27 26 28 32 38
39 35 34 34 26 19 20 22 21 20 23 25 32 64 38 88 97 94 84 75 82 84 88 90 89 84 74 64 73 96 90 61 57 42 34 35 38 38 31 26 24 19 19 18 18
42 37 33 31 26 21 20 22 24 27 32 33 45 45 71 51 96 99 90 79 70 95 98 93 78 65 57 59 48 47 49 40 38 36 37 36 41 35 31 28 26 19 19 16 14

GFSSW_500_rhum_141.txt.gz
RH
10 9 8 8 7 6 6 6 7 7 7 7 7 5 5 4 4 4 3 4 4 4 4 3 3 3 4 8 33 84 74 49 72 92 86 96 82 16 19 12 16 29 41 57 61
2 2 3 3 3 2 2 3 3 4 6 8 8 9 8 7 5 5 5 4 4 4 4 4 4 4 4 12 44 77 67 42 42 89 86 90 26 23 35 15 14 23 38 47 50
3 3 3 3 3 3 3 3 3 3 2 2 2 2 4 6 8 8 7 6 5 4 4 4 4 4 4 5 23 67 58 19 40 78 83 92 30 48 67 20 12 19 35 41 54
4 3 3 3 3 4 3 3 3 3 3 3 2 2 2 2 4 5 9 7 6 6 5 4 4 4 4 6 10 54 46 27 58 79 82 73 49 45 81 46 17 14 26 35 45
4 4 4 4 4 4 4 4 4 4 3 3 3 3 3 3 3 2 3 6 8 8 6 6 5 4 4 5 12 46 34 32 50 84 90 76 69 91 64 48 27 16 19 29 38
5 5 4 4 4 4 5 5 5 5 4 4 4 4 3 4 3 4 4 3 4 9 8 7 6 6 5 5 6 17 28 38 42 78 85 82 66 95 81 48 23 24 15 21 34
5 5 5 4 4 4 4 4 4 5 5 5 5 5 4 4 4 4 4 5 3 3 8 8 8 7 6 6 8 8 34 60 59 35 55 67 43 91 87 42 16 18 18 15 27
5 4 4 4 4 3 3 3 3 3 4 4 5 5 5 5 4 4 4 5 6 4 3 10 11 9 8 7 7 14 23 44 55 64 29 29 68 98 75 35 21 17 18 15 25
4 4 4 4 4 4 4 4 4 3 3 3 4 4 5 5 5 5 4 4 5 6 4 5 10 12 9 9 8 16 28 39 41 58 56 33 51 79 76 65 58 37 20 16 21
4 4 4 4 4 4 4 4 4 4 3 4 4 4 4 5 5 6 6 5 5 5 7 5 5 10 12 11 10 10 16 43 34 43 55 69 36 42 76 91 98 92 32 20 19
4 4 4 4 4 5 5 6 6 6 6 6 5 5 5 4 5 6 6 6 6 5 6 8 6 10 14 13 11 11 11 22 25 20 15 49 59 16 18 45 83 83 72 25 21
8 8 9 10 9 9 10 10 10 9 9 8 7 7 6 5 5 5 6 7 6 6 6 8 9 13 11 13 12 12 12 13 12 9 12 20 32 28 9 13 26 45 86 76 23
22 22 19 16 12 10 10 10 10 10 10 10 9 8 7 6 6 6 6 8 8 7 7 9 11 13 12 13 13 13 14 14 14 18 20 22 26 28 8 10 13 11 35 68 82
18 19 22 21 22 24 24 24 24 22 20 16 12 9 8 7 7 7 8 10 9 8 8 8 9 12 11 12 12 14 19 18 18 22 17 28 44 26 12 16 22 39 16 39 86
17 17 16 16 16 18 20 20 22 22 23 21 20 16 14 11 9 9 9 9 10 9 10 12 11 13 13 13 14 19 23 20 28 21 26 30 42 41 23 22 51 56 43 20 60
19 18 19 17 16 16 16 16 16 15 18 20 21 20 18 15 11 8 8 11 12 11 11 12 11 12 14 16 17 22 26 26 36 28 50 52 22 30 26 31 47 62 58 55 96
21 20 22 20 18 17 17 17 16 17 20 20 20 21 19 17 13 9 8 8 12 13 13 14 14 13 15 15 15 20 34 57 59 35 58 60 36 33 29 32 42 64 56 56 53
27 23 23 22 21 19 18 17 16 18 20 22 23 23 21 18 15 12 10 9 14 16 11 13 14 14 16 17 19 34 39 58 77 42 49 61 41 49 43 46 69 60 48 51 47
32 29 29 29 27 23 21 19 17 17 18 20 22 31 28 21 18 18 16 18 16 17 12 11 14 17 18 24 28 25 39 56 56 44 36 48 34 62 62 61 83 88 62 57 62
36 36 38 36 32 28 24 22 19 18 17 17 20 27 31 24 25 26 26 23 21 19 13 12 15 24 24 32 36 41 59 62 48 42 37 32 33 37 74 83 90 95 90 72 57
43 42 39 37 35 32 28 24 19 17 19 17 17 23 35 34 43 39 34 38 30 22 13 13 18 25 40 57 58 54 42 41 34 28 48 32 23 25 49 68 67 68 70 61 53
40 36 34 29 27 26 30 25 18 15 16 18 17 23 39 41 50 67 49 50 51 40 32 33 38 67 44 62 71 74 64 51 34 27 30 27 19 17 23 33 43 42 47 46 40
31 28 27 23 23 24 28 27 20 15 15 19 20 22 37 47 47 47 66 73 67 66 59 69 62 82 75 69 87 78 76 61 46 30 19 27 23 23 24 25 29 28 26 28 32
22 15 14 14 19 23 26 27 22 16 16 18 19 25 38 52 38 57 64 86 88 91 95 95 84 88 78 62 71 82 81 78 73 52 39 30 36 42 42 39 33 29 27 26 27
12 13 14 20 28 29 31 33 27 17 18 21 22 26 33 61 47 49 83 77 93 97 97 98 93 94 98 94 88 75 61 68 70 57 53 43 38 37 33 32 27 23 22 22 25
16 19 24 29 37 37 36 32 27 21 21 24 26 28 34 47 62 75 100 86 81 86 94 98 98 95 98 91 89 82 60 52 49 45 36 32 30 32 30 30 26 22 19 19 20
25 28 34 40 39 39 35 32 28 25 29 30 26 28 33 43 63 68 89 91 83 84 81 87 95 92 96 86 76 64 64 59 48 34 33 31 32 32 32 30 27 22 18 15 15

GFSSW_500_rhum_144.txt.gz
RH
9 8 7 7 7 6 6 6 6 6 6 6 7 6 6 5 5 5 4 4 4 4 4 4 3 3 4 10 40 72 57 57 82 97 74 85 82 17 14 16 29 40 46 61 62
2 2 3 3 2 2 2 2 2 2 3 3 5 6 6 7 7 6 6 6 5 4 4 4 4 4 4 16 74 80 54 27 55 82 87 71 26 24 17 13 22 36 41 50 55
3 3 3 3 3 3 3 3 2 2 2 2 2 2 2 2 4 7 8 7 6 5 4 4 4 4 4 6 27 70 59 25 27 70 87 76 29 61 51 16 18 32 39 48 61
4 4 4 4 4 4 3 3 3 3 3 3 3 2 2 2 3 3 4 9 8 7 6 4 4 4 4 5 14 66 50 32 68 82 79 83 36 49 97 29 14 24 34 39 50
4 4 4 4 4 4 4 4 4 4 4 4 3 3 3 4 3 4 3 3 7 9 9 6 5 4 4 4 13 55 40 39 78 84 76 86 66 98 39 50 17 16 29 34 45
5 5 5 4 5 5 5 4 4 4 4 4 4 4 4 4 4 3 4 4 3 4 10 8 7 6 5 5 6 26 26 44 44 76 70 67 81 95 82 56 29 14 22 32 34
5 5 5 4 4 3 3 3 3 3 3 3 4 4 4 4 4 4 4 4 4 4 5 11 8 7 6 6 6 8 45 57 62 36 56 58 51 81 85 41 20 23 13 24 31
4 4 4 4 4 4 4 4 4 3 3 3 3 3 4 4 5 5 4 4 4 5 5 8 11 10 8 8 7 9 27 46 60 61 34 29 88 82 89 58 15 17 18 14 30
4 4 4 4 4 4 4 4 4 4 4 3 3 3 3 4 4 4 5 5 4 4 6 5 8 13 11 8 8 9 57 27 46 57 64 35 58 83 54 43 42 27 16 15 29
4 4 3 3 3 3 3 4 4 4 4 4 4 4 4 4 5 4 4 5 5 5 5 6 6 11 13 11 61 86 12 23 43 54 70 81 68 45 71 86 96 81 33 19 20
6 6 6 5 5 5 6 7 7 8 8 8 8 7 7 6 6 5 5 5 6 6 5 5 7 8 14 12 13 11 11 35 18 32 47 37 82 71 24 65 87 80 47 19 17
16 18 14 11 10 9 8 8 8 9 9 9 10 9 9 8 7 6 5 5 6 7 6 6 7 10 9 12 14 13 13 27 17 17 17 15 17 44 40 11 26 50 80 43 20
18 18 16 16 18 21 22 23 22 20 17 14 12 11 11 9 8 7 6 6 7 8 8 6 6 7 10 10 13 14 16 81 20 16 18 18 16 25 31 10 14 21 37 80 83
17 16 14 13 13 13 14 17 20 21 22 22 22 21 17 14 11 8 7 8 8 10 10 8 7 8 9 10 13 13 20 18 17 19 54 21 99 37 23 11 13 14 12 16 23
24 23 20 17 16 14 14 14 14 15 15 16 18 20 20 19 16 14 12 11 11 10 10 10 9 8 10 12 14 16 34 24 24 22 21 34 71 100 46 18 30 42 40 22 22
27 24 22 20 19 18 17 17 16 16 15 16 16 17 19 20 19 17 14 11 9 11 12 11 10 11 11 13 15 18 24 20 27 46 48 99 98 100 75 35 39 56 57 42 28
32 31 29 26 22 22 22 20 19 18 18 16 17 19 20 20 20 19 16 12 10 11 11 13 12 14 13 13 15 16 21 90 95 100 93 92 66 99 56 23 50 73 70 52 52
34 33 32 30 28 28 28 27 23 20 19 18 18 20 21 21 20 20 18 15 11 9 13 15 13 14 14 13 15 18 43 88 93 86 89 81 63 95 46 34 40 66 66 60 49
35 37 37 36 34 34 34 32 28 22 21 19 18 19 21 24 24 22 20 18 15 13 15 15 14 13 14 15 15 19 31 91 82 92 88 88 58 44 50 42 46 57 54 69 64
35 39 43 42 41 38 36 34 31 28 24 21 19 18 22 30 26 26 26 24 24 20 18 18 16 14 16 16 16 20 50 78 80 77 80 75 66 88 59 55 79 64 72 83 76
41 42 40 39 36 33 30 28 25 28 27 22 21 20 19 25 30 33 33 40 32 25 18 20 15 61 16 20 52 22 57 55 76 75 71 70 74 59 37 61 85 80 67 75 79
39 40 39 33 32 25 22 22 19 19 26 22 19 21 21 18 32 38 45 52 39 36 31 27 18 81 33 62 40 77 75 79 78 82 50 68 75 75 28 40 73 66 63 57 62
12 12 14 20 20 15 14 13 15 17 24 24 19 19 20 21 34 42 71 70 57 60 55 47 32 86 77 34 29 43 69 85 80 78 81 82 76 46 19 20 34 35 31 36 38
14 15 16 17 15 14 15 18 19 22 23 25 20 18 20 22 31 43 70 81 74 73 68 66 78 72 82 81 70 50 74 83 89 81 78 78 79 53 33 27 26 26 29 30 28
21 21 22 22 20 18 19 24 26 26 30 30 27 21 20 24 30 44 66 83 82 87 87 72 71 94 76 100 93 86 91 83 91 90 90 94 86 89 47 31 31 30 29 26 23
30 26 25 22 20 25 28 33 33 33 34 33 29 23 21 26 32 47 53 58 80 96 95 94 86 91 92 80 92 89 95 82 60 72 67 58 64 54 39 38 36 32 28 24 22
30 26 27 27 29 32 34 40 39 37 36 34 30 24 23 25 26 34 48 50 53 84 97 95 95 96 99 87 90 96 83 69 65 52 51 48 45 35 35 37 35 32 27 21 17

GFSSW_500_rhum_147.txt.gz
RH
7 7 6 6 6 5 5 5 5 6 6 6 7 7 7 6 5 5 5 5 4 4 4 4 3 4 5 20 74 67 99 71 84 89 82 81 74 16 13 20 36 40 57 54 58
2 3 3 2 2 2 2 2 2 2 2 2 3 3 4 5 7 7 7 6 5 4 4 4 4 4 4 34 80 80 61 30 32 79 86 80 35 22 15 16 31 37 48 53 54
3 3 3 3 3 3 3 3 3 3 2 2 2 2 2 2 3 5 9 9 6 6 4 4 4 4 4 13 30 53 60 28 26 67 87 66 37 49 31 73 21 40 41 59 51
4 4 4 3 3 3 3 3 3 3 3 3 3 3 3 3 3 3 3 6 9 7 6 5 4 4 4 7 14 89 58 27 62 78 77 74 44 67 97 38 15 30 34 49 51
4 4 4 4 4 4 4 4 4 4 4 4 4 4 4 3 3 3 3 3 3 10 10 7 6 4 4 5 15 48 51 45 53 79 71 98 60 93 54 66 16 21 31 34 50
5 5 4 4 4 4 4 4 3 3 3 3 4 4 4 4 4 4 4 4 4 3 8 11 7 6 5 5 23 36 33 42 44 56 72 57 53 81 72 54 42 14 27 30 32
5 5 4 4 4 3 3 3 3 3 3 3 3 3 3 4 4 4 4 4 4 5 4 6 11 7 6 6 6 9 45 49 48 55 45 48 63 71 84 76 29 21 14 27 32
4 4 4 4 3 3 3 3 3 3 3 3 3 3 3 3 4 4 4 4 4 4 6 4 9 9 8 7 7 9 23 98 37 39 59 25 96 77 83 57 16 15 17 15 28
4 4 4 4 4 4 4 3 3 3 3 3 3 3 3 3 4 4 4 4 5 5 4 5 5 11 11 9 68 18 64 26 58 35 50 50 79 64 56 41 37 25 16 14 25
4 3 3 3 3 3 3 3 3 3 3 4 4 4 5 5 5 5 5 4 5 6 5 5 6 6 10 12 98 97 72 88 40 86 40 54 66 57 36 65 90 83 69 18 16
6 6 6 6 6 6 6 6 6 6 7 8 8 8 8 7 7 7 6 6 5 5 6 5 5 7 9 12 97 99 99 61 67 24 50 48 46 57 62 26 51 84 58 17 16
15 18 19 20 20 19 17 15 13 11 9 8 8 8 9 9 9 8 8 7 6 6 6 7 6 7 9 33 20 41 54 63 88 30 31 30 17 23 13 29 16 42 68 52 17
15 14 14 14 14 13 13 13 15 17 21 21 22 20 16 13 11 10 8 7 6 6 7 8 8 6 7 10 10 13 79 98 100 21 19 15 13 80 29 16 19 8 20 56 40
19 20 21 20 16 14 13 13 13 13 14 14 17 20 19 21 18 15 12 8 7 7 8 10 9 8 7 8 11 23 35 93 97 44 91 84 86 95 98 17 13 8 11 21 67
28 26 25 23 20 18 17 16 14 14 15 14 14 16 16 18 18 18 16 13 11 11 11 13 11 9 8 9 13 26 89 95 90 22 66 89 43 77 66 58 24 13 13 16 17
30 29 29 28 26 23 21 19 18 17 18 17 16 15 15 16 18 18 19 17 16 13 10 13 11 10 10 10 10 14 48 64 73 89 89 84 76 89 98 82 98 66 26 43 30
30 31 30 29 30 28 26 24 23 22 22 20 19 17 16 17 19 19 20 19 16 14 11 13 13 12 11 11 12 13 19 80 90 88 77 94 71 95 95 78 57 98 72 44 47
33 32 31 31 31 33 32 30 30 28 24 24 21 19 18 18 20 19 20 19 18 14 19 27 18 13 13 12 19 14 31 65 81 82 70 97 81 81 74 97 43 57 62 46 46
35 33 32 32 34 37 40 40 38 34 31 25 22 20 19 23 39 25 21 20 19 17 13 56 61 52 14 13 14 53 20 48 78 90 93 95 99 92 55 56 36 96 69 53 53
35 36 36 37 39 40 39 38 36 34 33 30 27 26 29 75 67 61 68 32 29 29 18 28 40 62 36 20 15 38 69 39 65 85 93 67 82 82 96 69 99 96 78 57 54
36 29 34 36 38 36 34 32 30 28 28 26 29 27 24 49 95 93 86 80 69 73 28 24 42 60 63 36 46 23 39 59 70 72 51 53 66 68 59 81 98 100 100 68 61
11 10 13 12 14 13 15 18 20 16 15 20 22 26 24 24 26 61 92 90 91 70 87 38 58 65 66 71 44 68 61 68 66 76 68 73 73 89 95 96 95 98 52 74 66
20 18 15 14 15 16 16 16 13 12 12 17 21 24 24 23 22 24 76 96 96 86 72 74 40 76 73 79 68 66 73 68 63 58 76 89 59 68 82 72 97 97 51 55 51
29 29 25 24 23 24 23 21 18 15 16 18 23 25 25 24 22 24 34 92 61 48 46 35 66 77 63 70 76 74 51 71 65 85 74 59 82 87 78 64 86 92 26 47 38
33 33 33 33 30 31 27 26 22 22 19 22 27 28 28 25 22 24 28 60 47 71 69 57 46 88 74 88 84 87 71 67 68 73 83 84 74 76 83 48 99 79 16 19 24
40 42 39 37 35 30 29 32 28 30 30 29 30 32 31 31 28 34 96 48 85 72 80 80 79 78 88 93 94 96 74 69 75 81 78 91 88 97 96 96 93 93 35 28 26
35 38 42 40 39 36 42 34 36 36 37 36 36 34 34 34 31 26 24 25 33 56 70 79 91 92 87 91 92 87 86 87 86 82 82 82 83 95 98 71 72 98 37 28 25